Lancaster, OH

11:45 AM EDT on April 30, 2017 (GMT -0400)
Fairfield County

Weather History for KLHQ - January, 2013

Change the Weather History Date:

Thursday, January 10, 2013

  Actual Average Record
Temperature  
Mean Temperature 33 °F -  
Max Temperature 43 °F 30 °F 60 °F (1939)
Min Temperature 24 °F 14 °F -14 °F (1982)
Degree Days  
Heating Degree Days 32    
Moisture  
Dew Point 28 °F    
Average Humidity 77    
Maximum Humidity 92    
Minimum Humidity 60    
Precipitation  
Precipitation 0.00 in - - ()
Sea Level Pressure  
Sea Level Pressure 30.46 in    
Wind  
Wind Speed 2 mph (ESE)    
Max Wind Speed 10 mph    
Max Gust Speed -    
Visibility 9 miles    
Events      
Averages and records for this station are not official NWS values.
T = Trace of Precipitation, MM = Missing Value Source: NWS Daily Summary

Daily Weather History Graph

Daily Weather History Graph

Search for Another Location

Airport or City:

Trip Planner

Search our weather history database for the weather conditions in past years. The results will help you decide how hot, cold, wet, or windy it might be!

Date:

Astronomy

Jan. 10, 2013 Rise Set
Actual Time 7:51 AM EST 5:25 PM EST
Civil Twilight 7:21 AM EST 5:55 PM EST
Nautical Twilight 6:48 AM EST 6:28 PM EST
Astronomical Twilight 6:15 AM EST 7:01 PM EST
Moon 6:30 AM EST (1/10) 4:31 PM EST (1/10)
Length of Visible Light 10h 33m
Length of Day
9h 34m
Waning Crescent, 2% of the Moon is Illuminated
Jan 10
Waning Crescent
Jan 11
New
Jan 18
First Quarter
Jan 26
Full
Feb 3
Last Quarter

Hourly Weather History & Observations

Time (EST) Temp. Windchill Dew Point Humidity Pressure Visibility Wind Dir Wind Speed Gust Speed Precip Events Conditions
12:53 AM 28.0 °F - 26.1 °F 92% 30.54 in 10.0 mi Calm Calm - N/A   Clear
1:53 AM 28.0 °F - 25.0 °F 88% 30.55 in 10.0 mi Calm Calm - N/A   Clear
2:53 AM 27.0 °F - 24.1 °F 89% 30.55 in 10.0 mi Calm Calm - N/A   Clear
3:53 AM 26.1 °F - 23.0 °F 88% 30.54 in 7.0 mi Calm Calm - N/A   Clear
4:53 AM 26.1 °F - 24.1 °F 92% 30.53 in 6.0 mi Calm Calm - N/A   Clear
5:53 AM 24.1 °F - 21.9 °F 91% 30.54 in 7.0 mi Calm Calm - N/A   Clear
6:53 AM 25.0 °F - 23.0 °F 92% 30.56 in 6.0 mi Calm Calm - N/A   Clear
7:53 AM 26.1 °F - 23.0 °F 88% 30.58 in 6.0 mi Calm Calm - N/A   Clear
8:53 AM 27.0 °F - 25.0 °F 92% 30.59 in 6.0 mi Calm Calm - N/A   Clear
9:53 AM 30.0 °F - 28.0 °F 92% 30.58 in 5.0 mi Calm Calm - N/A   Clear
10:53 AM 34.0 °F - 30.9 °F 89% 30.58 in 6.0 mi Calm Calm - N/A   Clear
11:53 AM 39.0 °F 33.4 °F 30.0 °F 70% 30.54 in 9.0 mi ESE 8.1 mph - N/A   Clear
12:53 PM 39.0 °F 34.8 °F 30.0 °F 70% 30.51 in 9.0 mi ESE 5.8 mph - N/A   Clear
1:53 PM 39.9 °F 34.5 °F 30.9 °F 70% 30.48 in 10.0 mi SE 8.1 mph - N/A   Scattered Clouds
2:53 PM 41.0 °F 35.8 °F 30.9 °F 67% 30.45 in 10.0 mi East 8.1 mph - N/A   Clear
3:53 PM 42.1 °F 38.4 °F 30.9 °F 65% 30.43 in 10.0 mi East 5.8 mph - N/A   Mostly Cloudy
4:53 PM 41.0 °F 36.4 °F 28.9 °F 62% 30.42 in 10.0 mi ESE 6.9 mph - N/A   Overcast
5:53 PM 39.9 °F 34.5 °F 30.0 °F 68% 30.39 in 10.0 mi ESE 8.1 mph - N/A   Mostly Cloudy
6:53 PM 41.0 °F 37.1 °F 30.0 °F 65% 30.36 in 10.0 mi East 5.8 mph - N/A   Overcast
7:53 PM 42.1 °F 36.1 °F 28.9 °F 60% 30.34 in 10.0 mi SE 10.4 mph - N/A   Overcast
8:53 PM 42.1 °F 38.4 °F 30.0 °F 62% 30.30 in 10.0 mi ESE 5.8 mph - N/A   Overcast
9:53 PM 41.0 °F 36.4 °F 30.0 °F 65% 30.27 in 10.0 mi ESE 6.9 mph - N/A   Scattered Clouds
10:53 PM 41.0 °F 39.0 °F 30.9 °F 67% 30.24 in 10.0 mi ESE 3.5 mph - N/A   Clear
11:53 PM 43.0 °F 38.8 °F 30.9 °F 62% 30.19 in 10.0 mi SE 6.9 mph - N/A   Clear